CYGFM03

Last updated on Wed Sep 09 2026 00:02:41 GMT+0000 (Coordinated Universal Time)

1 41891U 16078H 26251.57493855 .00035280 00000+0 35217-3 0 9995 2 41891 34.9400 34.5317 0004239 271.1572 88.8668 15.64547988542025
UTC large
Height (km)
Speed (km/s)
/
Latitude / Longitude
Inclination (degrees)
Orbital Period (minutes)
Azimuth
Elevation
Range (km)
Doppler Factor

Next 0 passes for location: London (51.5072 / 0.1276)

No passes found over London.
CYGFM03